www.pogodaiklimat.ru

Погода и климат >> Архив погоды >> Россия >> Волгоградская область >> Волгоград город


ПОГОДА в Волгограде город

  • Прогноз погоды в Волгограде город
  • Монитор погоды в Волгограде город
  • Климат города

АРХИВ ПОГОДЫ в Волгограде город

Время (UTC), дата Ветер
(напр.,м/с)
 
Видим.   Явления Облачность Т
(С)
Тd
(С)
f
(%)
Тe
(С)
Тes
(С)
Комфортность P
(гПа)
Po
(гПа)
Тmin
(С)
Tmax
(С)
R
(мм)
R24
(мм)
S
(см)
06 17.05 С 1 10 км слабый дождь 10/6 600 м
[Sc Ac und]
+12.5 +5.8 64 +13 +14 1017.7 1003.8
09 17.05 ЮВ 1 10 км слабый дождь 10/3 600 м
[Sc Ac As]
+14.8 +8.4 65 +15 +20 1017.5 1003.8
12 17.05 штиль 0 10 км в посл. час дождь 10/3 600 м
[Sc Ac As]
+15.0 +9.8 71 +15 +18 1017.2 1003.5
15 17.05 штиль 0 10 км слабый дождь 10/10 100 м
[Frnb Ns]
+13.6 +10.8 83 +13 +13 1017.5 1003.7 +15.5 2
18 17.05 штиль 0 10 км слабый дождь 10/10 100 м
[Frnb Ns]
+12.8 +10.5 86 +12 +12 1017.4 1003.5
21 17.05 штиль 0 4000 м слабый дождь 10/10 100 м
[Frnb Ns]
+12.5 +11.1 91 +12 +12 1016.6 1002.7
00 18.05 С 1 4000 м дымка {дождь} 10/10 300 м
[Sc diur, vesp]
+11.0 +9.6 91 +11 +11 1016.1 1002.1
03 18.05 С 1 4000 м дымка 10/10 300 м
[Sc diur, vesp]
+10.2 +8.5 89 +10 +10 1016.6 1002.6 +9.9 5
06 18.05 С 2 10 км 10/10 300 м
[Cb cap]
+12.0 +6.7 70 +11 +11 1017.0 1003.1
09 18.05 С 1 10 км слабый дождь 10/10 200 м
[Frnb]
+12.6 +5.7 63 +13 +13 1017.2 1003.3
12 18.05 СЗ 3 10 км {дождь} 10/0
[Ac und]
+12.4 +6.7 68 +11 +14 1017.2 1003.3
15 18.05 С 2 10 км 9/6 300 м
[Sc Ac lent Ci fib]
+12.0 +7.1 72 +11 +11 1016.3 1002.4 +13.5 0.5
18 18.05 штиль 0 10 км 6/0
[Ac lent]
+10.1 +7.2 82 +9 +9 1016.2 1002.2
21 18.05 штиль 0 10 км 8/0
[Ac lent]
+10.5 +8.0 84 +10 +10 1015.8 1001.9
00 19.05 С 1 10 км 9/4 300 м
[Sc Ac As]
+10.6 +7.8 83 +10 +10 1014.7 1000.7
03 19.05 С 1 4000 м дымка 10/0
[As op]
+11.0 +9.3 89 +11 +11 1014.1 1000.1 +10.0
06 19.05 В 1 1000 м дымка 10/10 200 м
[St]
+12.7 +11.3 91 +13 +13 1013.8 1000.0
09 19.05 В 1 10 км 10/8 600 м
[Sc Ac lent]
+16.7 +10.9 69 +18 +18 1013.3 999.7
12 19.05 В 2 10 км в посл. час ливневой дождь 10/4 300 м
[Cb cap Ac trans Ci fib]
+16.4 +12.5 78 +17 +20 1012.3 998.7
15 19.05 штиль 0 10 км слабый ливневой дождь 10/5 300 м
[Cb cap As op]
+14.6 +12.0 84 +14 +14 1012.5 998.8 +18.5 0.8
18 19.05 штиль 0 10 км {ливн. осадки} 10/3 300 м
[Sc diur, vesp Ac trans]
+13.7 +11.2 85 +13 +13 1012.6 998.9
21 19.05 СВ 1 10 км 6/0
[Ci fib]
+12.5 +11.0 91 +12 +12 1011.8 998.0
00 20.05 С 1 1000 м дымка 10/10 100 м
[St]
+11.7 +10.6 93 +11 +11 1011.2 997.3
03 20.05 В 1 1000 м в посл. час туман 10/10 100 м
[St]
+12.2 +11.2 94 +12 +12 1010.2 996.4 +11.4 0.5
06 20.05 С 2 10 км в посл. час ливневой дождь {туман} 10/6 300 м
[Cb cap Ac As]
+14.0 +10.9 82 +13 +15 1008.8 995.1
09 20.05 С 1 10 км 10/6 600 м
[Cb cap Ac As]
+16.6 +11.4 71 +17 +20 1008.2 994.6
12 20.05 СЗ 2 10 км слабый ливневой дождь 10/6 300 м
[Cb cap Ac As]
+14.9 +11.4 80 +15 +16 1006.6 993.0
15 20.05 СЗ 2 10 км {ливн. осадки} 9/5 300 м
[Sc diur, vesp Ac trans]
+14.8 +11.4 80 +14 +15 1006.0 992.4 +16.6 1
18 20.05 СЗ 3 10 км {ливн. осадки} 8/4 300 м
[Sc diur, vesp Ac cast Ci fib]
+13.0 +11.4 90 +12 +12 1005.2 991.5
21 20.05 СЗ 2 10 км {ливн. осадки} 10/6 300 м
[Cb cap Ac As]
+12.9 +11.4 91 +12 +12 1004.2 990.6
03 21.05 Ю 1 10 км 10/9 200 м
[St As trans]
+12.8 +11.1 89 +13 +13 1001.8 988.1 +11.8 0.3
06 21.05 ЮЗ 2 4000 м слабый ливневой дождь 10/8 200 м
[Cb cap As op]
+13.8 +11.7 87 +13 +14 1001.2 987.6
09 21.05 ЮЗ 3
{11}
10 км {ливн. осадки} 10/10 600 м
[Cb calv]
+17.2 +10.8 66 +17 +17 1000.4 987.0
12 21.05 СЗ 4
{13}
10 км {ливн. осадки} 8/6 600 м
[Sc diur, vesp Ac lent]
+17.6 +11.6 68 +17 +19 1000.5 987.1
15 21.05 СЗ 3
{10}
10 км слабый ливневой дождь 10/10 200 м
[Cb cap]
+14.3 +12.5 89 +13 +13 1001.5 987.9 +18.7
18 21.05 СЗ 2 10 км {ливн. осадки} 8/8 300 м
[Sc diur, vesp]
+15.0 +11.3 79 +15 +15 1002.0 988.5
21 21.05 СЗ 5
{11}
10 км 8/8 300 м
[Sc diur, vesp]
+15.0 +11.3 79 +14 +14 1002.5 988.9
00 22.05 СЗ 3
{11}
10 км 8/8 300 м
[Sc diur, vesp]
+14.1 +11.0 82 +13 +13 1002.3 988.7
03 22.05 В 1 10 км 10/10 200 м
[Sc diur, vesp]
+13.4 +11.4 88 +14 +14 1003.2 989.6 +13.0
06 22.05 С 1 10 км слабый дождь {ливн. осадки} 9/9 200 м
[Frnb]
+15.7 +12.2 80 +16 +18 1003.7 990.2
09 22.05 СЗ 2 10 км слабый дождь 10/10 200 м
[Frnb]
+16.9 +12.0 73 +17 +17 1003.7 990.3
12 22.05 СЗ 2 10 км слабый ливневой дождь 10/8 300 м
[Cb cap Ac und]
+15.6 +13.1 85 +15 +16 1004.0 990.5
15 22.05 С 3
{10}
10 км {ливн. осадки} 9/8 300 м
[Cb cap Ac As]
+12.8 +9.3 79 +11 +12 1006.7 993.0 +18.3 2
18 22.05 СЗ 2 10 км {ливн. осадки} 6/0
[Ac As]
+11.0 +8.7 86 +10 +10 1008.8 995.0
21 22.05 СЗ 3 10 км 3/0
[Ac trans]
+9.4 +6.6 83 +7 +7 1009.3 995.4
00 23.05 СЗ 3 10 км 5/0
[Ac As]
+8.0 +4.3 77 +5 +5 1009.9 995.9
03 23.05 СЗ 3 10 км 8/0
[Ac As Cs]
+8.3 +3.6 72 +6 +7 1011.4 997.3 +7.4
06 23.05 С 3 10 км 4/0
[Ci fib]
+14.1 +1.2 41 +13 +22 1012.8 999.0
09 23.05 С 2 10 км 8/5 2000 м
[Cu med, cong Cs]
+16.4 +0.2 33 +17 +24 1014.2 1000.5
12 23.05 С 2 10 км 4/4 2000 м
[Cu med, cong]
+16.2 -0.6 32 +16 +23 1014.6 1000.9
15 23.05 С 2 10 км 6/0
[Ac cast]
+16.4 -1.0 30 +17 +18 1015.0 1001.3 +17.6
18 23.05 штиль 0 10 км 4/3 1000 м
[Sc diur, vesp Ac cast Ci fib]
+11.6 +1.2 49 +11 +11 1017.3 1003.3
21 23.05 штиль 0 10 км ясно +10.0 +0.3 51 +10 +10 1018.1 1004.1
00 24.05 Ю 1 10 км 4/0
[Ci fib]
+10.5 0.0 48 +11 +11 1018.4 1004.4
03 24.05 Ю 1 10 км 4/0
[Ci fib]
+13.3 +0.3 41 +14 +16 1019.2 1005.3 +9.0

 

Местоположение метеостанции Волгоград город (Волгоградская область, Россия): широта 48.67 долгота 44.45 высота над уровнем моря 116 м.

В архиве по умолчанию представлена погода в Волгограде город за последнюю неделю. Архивные данные за месяц целиком и за предыдущие месяцы, начиная с января 2011 года, Вы можете получить, выбрав интересующий диапазон дат из раскрывающегося списка и нажав кнопку "Ввод!".

Внимание! Время в таблицах - всемирное. Для получения местного времени необходимо прибавить поправку, которая в Волгограде город равна 3 ч.

Смотрите также архив погоды в соседних городах и на ближайших метеорологических станциях:

Погода в Волгограде (Волгоградская область, Россия) (14 км)
Погода в Калаче-на-Дону (Волгоградская область, Россия) (71 км)
Погода в Иловле (Волгоградская область, Россия) (77 км)
Погода в Малых Дербетах (Калмыкия, Россия) (84 км)
Погода в Нижнем Чире (Волгоградская область, Россия) (105 км)
Погода в Ольховке (Волгоградская область, Россия) (134 км)
Погода в Фролове (Волгоградская область, Россия) (138 км)
Погода в Черный Яр (Астраханская область, Россия) (140 км)
Погода в Кетченерах (Калмыкия, Россия) (150 км)
Погода в Котельниково (Волгоградская область, Россия) (151 км)

Пояснения к столбцам:

Ветер - указаны скорость ветра в м/с - средняя за 10 мин, порывы в срок и между сроками (в фигурных скобках) и направление, откуда дует ветер: С - северный, СВ - северо-восточный, В - восточный, ЮВ - юго-восточный, Ю - южный, ЮЗ - юго-западный, З - западный, СЗ - северо-западный.
Видимость - горизонтальная дальность видимости в метрах или километрах. При видимости от 1 до 10 км при отсутствии осадков обычно наблюдается дымка, при ухудшении видимости до 1 км и менее - туман. В сухую погоду видимость может ухудшаться дымом, пылью или мглою.
Явления - указаны атмосферные явления, наблюдавшиеся в срок или в последний час перед сроком; фигурными скобками обозначены явления, наблюдавшиеся между сроками (за 1-3 часа до срока); квадратными скобками обозначены град или гололедные отложения с указанием их диаметра в мм.
Облачность - указаны через наклонную черту общая и нижняя облачность в баллах и высота нижней границы облаков в метрах; квадратными скобками обозначены формы облаков: Ci - перистые, Cs - перисто-слоистые, Cc - перисто-кучевые, Ac - высококучевые, As - высокослоистые, Sc - слоисто-кучевые, Ns - слоисто-дождевые, Cu - кучевые, Cb - кучево-дождевые. Подробнее классификацию облаков см. в Атласе облаков (PDF).
T - Температура воздуха - температура, измеренная на высоте 2 м над землей.
Td - Температура точки росы - температура, при понижении до которой содержащийся в воздухе водяной пар достигнет насыщения.
f - Относительная влажность воздуха - влажноcть воздуха, измеренная на высоте 2 м над землей.
Te - Эффективная температура - температура, которую ощущает одетый по сезону человек в тени. Характеристика душности погоды. При расчете учитывается влияние влажности воздуха и скорости ветра на теплоощущения человека.
Tes - Эффективная температура на солнце - температура, которую ощущает человек, с поправкой на солнечный нагрев. Характеристика знойности погоды. Зависит от высоты солнца над горизонтом, облачности и скорости ветра. Ночью, в пасмурную погоду, а также при ветре 12 м/с и более поправка равна нулю.
P - Атмосферное давление - приведенное к уровню моря атмосферное давление.
Po - Атмосферное давление - измеренное на уровне метеостанции атмосферное давление.
Tmin - Минимальная температура - минимум температуры воздуха на высоте 2 м над землей.
Tmax - Максимальная температура - максимум температуры воздуха на высоте 2 м над землей.
R - Количество осадков - Количество выпавших осадков за период времени, мм. При наведении курсора мыши на число - период времени, за который выпало указанное количество осадков.
R24 - Количество осадков - Количество выпавших осадков за 24 часа, мм.
S - Снежный покров - Высота снежного покрова, см. При наведении курсора мыши на число - состояние снежного покрова и степень покрытия местности в баллах.